This is the latest recevied weather packets stored in our database for station/object KC8BSD. If no packets are shown the sender has not sent any weather packets the latest 10 day(s).
| Time | Temp. | Humidity | Pressure | Rain* | Wind** | Luminosity | Snow |
|---|---|---|---|---|---|---|---|
| 1777477778 | 10° C | 87% | 1013.9 hPa | 0 mm | - | 229 W/m² | - |
| 1777477474 | 10° C | 87% | 1013.9 hPa | 0 mm | - | 215 W/m² | - |
| 1777477171 | 10° C | 88% | 1014.1 hPa | 0 mm | - | 184 W/m² | - |
| 1777476867 | 9.44° C | 89% | 1014 hPa | 0 mm | - | 214 W/m² | - |
| 1777476566 | 9.44° C | 89% | 1014.2 hPa | 0 mm | - | 177 W/m² | - |
| 1777476262 | 9.44° C | 90% | 1014.2 hPa | 0 mm | - | 163 W/m² | - |
| 1777475957 | 9.44° C | 90% | 1014.1 hPa | 0 mm | - | 187 W/m² | - |
| 1777475654 | 9.44° C | 91% | 1014.1 hPa | 0 mm | - | 188 W/m² | - |
| 1777475350 | 9.44° C | 91% | 1014.2 hPa | 0 mm | - | 196 W/m² | - |
| 1777475045 | 9.44° C | 91% | 1014.3 hPa | 0 mm | - | 183 W/m² | - |
| 1777474742 | 8.89° C | 92% | 1014.2 hPa | 0 mm | - | 128 W/m² | - |
| 1777474438 | 8.89° C | 92% | 1014.1 hPa | 0 mm | - | 96 W/m² | - |
| 1777474135 | 8.89° C | 92% | 1014.3 hPa | 0 mm | - | 104 W/m² | - |
| 1777473833 | 8.89° C | 92% | 1014.1 hPa | 0 mm | - | 88 W/m² | - |
| 1777473529 | 8.89° C | 92% | 1014.2 hPa | 0 mm | - | 59 W/m² | - |
| 1777473225 | 8.89° C | 93% | 1014.1 hPa | 0 mm | - | 102 W/m² | - |
| 1777472922 | 8.89° C | 93% | 1014.4 hPa | 0 mm | - | 125 W/m² | - |
| 1777472618 | 8.89° C | 93% | 1014.2 hPa | 0 mm | - | 127 W/m² | - |
| 1777472315 | 8.89° C | 93% | 1014.4 hPa | 0 mm | - | 119 W/m² | - |
| 1777472013 | 8.33° C | 93% | 1014.6 hPa | 0 mm | - | 93 W/m² | - |
| 1777471708 | 8.33° C | 93% | 1014.6 hPa | 0 mm | - | 63 W/m² | - |
| 1777471405 | 8.89° C | 93% | 1014.5 hPa | 0 mm | - | 62 W/m² | - |
| 1777471102 | 8.33° C | 93% | 1014.5 hPa | 0 mm | - | 46 W/m² | - |
| 1777470798 | 8.33° C | 93% | 1014.7 hPa | 0 mm | - | 53 W/m² | - |
| 1777470495 | 8.33° C | 93% | 1014.8 hPa | 0 mm | - | 60 W/m² | - |
* Rain latest hour (hover to see other rain measurements)
** Current wind speed in m/s (hover to see current wind gust speed)